Regional Weather Roundup
Issued by NWS Sioux Falls, SD

Home | Current Version | Previous Version | Text Only | Print | Product List | Glossary On
Versions: 1 2 3 4 5 6 7 8 9 10 11 12 13 14 15 16 17 18 19 20 21 22 23 24 25 26 27 28 29 30 31 32 33 34 35 36 37 38 39 40 41 42 43 44 45 46 47 48 49 50
000
ASUS43 KFSD 240202
RWRFSD

WEATHER ROUNDUP FOR SE SOUTH DAKOTA/SW MINNESOTA/NW IOWA
NATIONAL WEATHER SERVICE SIOUX FALLS SD
900 PM CDT MON APR 23 2018

NOTE: "FAIR" INDICATES FEW OR NO CLOUDS BELOW 12,000 FEET WITH NO
SIGNIFICANT WEATHER AND OR OBSTRUCTIONS TO VISIBILITY.


SDZ038>040-050-052>070-240300-
SOUTHEAST SOUTH DAKOTA

CITY           SKY/WX    TMP DP  RH WIND       PRES   REMARKS
BROOKINGS      CLOUDY    57  42  57 SE9       30.13R
CHAMBERLAIN    CLOUDY    62  45  53 E8        30.07R
HURON          CLOUDY    61  43  51 E8        30.09R
MADISON        CLOUDY    55  46  71 SE9       30.12R
MITCHELL       CLOUDY    59  44  57 E7        30.09R
SIOUX FALLS    MOCLDY    57  41  55 E8        30.12R
WINNER         MOCLDY    59  42  53 SE9       30.06R
YANKTON        CLOUDY    62  35  36 NE7       30.08R
$$

MNZ071-072-080-081-089-090-097-098-240300-
SOUTHWEST MINNESOTA

CITY           SKY/WX    TMP DP  RH WIND       PRES   REMARKS
FAIRMONT       CLEAR     54  44  69 NW3       30.14S
JACKSON        CLEAR     54  41  62 CALM      30.15S
LUVERNE        CLEAR     52  43  71 E6        30.14R
MARSHALL       CLEAR     57  43  59 S5        30.14R
MONTEVIDEO     CLEAR     57  39  51 CALM      30.13R
PIPESTONE      CLEAR    N/A N/A N/A SE6       30.14R
REDWOOD FALLS  CLEAR     59  44  57 S3        30.13R
TRACY          CLEAR     54  44  67 S3        30.14R
WINDOM         CLEAR     54  34  47 SE5       30.14S
WORTHINGTON    CLEAR     54  42  64 SE7       30.15R
$$

IAZ001>003-012>014-020>022-031-032-NEZ013-014-SDZ071-240300-
NORTHWEST IOWA

CITY           SKY/WX    TMP DP  RH WIND       PRES   REMARKS
CHEROKEE       CLEAR     57  43  59 NE8       30.12R
DENISON        CLEAR     59  34  38 NE7       30.10R
ESTHERVILLE    CLEAR     51  46  83 N3        30.13S
LE MARS        CLEAR     61  39  44 E10       30.10R
ORANGE CITY    CLEAR     57  43  58 E7        30.12R
SHELDON        PTCLDY    54  39  58 E8        30.11S
SIOUX CITY     CLEAR     61  39  44 E10       30.08R
SPENCER        CLEAR     51  43  74 NE7       30.13S
STORM LAKE     CLEAR     55  45  67 NE10      30.12R
$$

ABBREVIATIONS USED IN REMARKS
   TC - TEMPERATURE IN CELSIUS
  WCI - WIND CHILL INDEX
   HX - HEAT INDEX
  VSB - VISIBILITY




USA.gov is the U.S. government's official web portal to all federal, state and local government web resources and services.